Ainsworth, NE

6:52 AM CDT on October 22, 2019 (GMT -0500)
Ainsworth Municipal

Weather History for KANW - August, 2019

Change the Weather History Date:

Tuesday, August 27, 2019

  Actual Average Record
Temperature  
Mean Temperature 62 °F -  
Max Temperature 71 °F 83 °F 97 °F (2012)
Min Temperature 52 °F 58 °F 52 °F (2016)
Degree Days  
Heating Degree Days 4    
Growing Degree Days 12 (Base 50)    
Moisture  
Dew Point 45 °F    
Average Humidity 62    
Maximum Humidity 97    
Minimum Humidity 27    
Precipitation  
Precipitation 0.00 in - - ()
Sea Level Pressure  
Sea Level Pressure 30.09 in    
Wind  
Wind Speed 8 mph ()    
Max Wind Speed 24 mph    
Max Gust Speed 30 mph    
Visibility 10.0 miles    
Events      
Averages and records for this station are not official NWS values.
T = Trace of Precipitation, MM = Missing Value Source: Averaged Metar Reports

Daily Weather History Graph

Daily Weather History Graph

Search for Another Location

Airport or City:

Astronomy

Aug. 27, 2019 Rise Set
Actual Time 6:59 AM CDT 8:22 PM CDT
Civil Twilight 6:29 AM CDT 8:52 PM CDT
Nautical Twilight 5:54 AM CDT 9:27 PM CDT
Astronomical Twilight 5:17 AM CDT 10:04 PM CDT
Moon 3:21 AM CDT (8/27) 6:49 PM CDT (8/27)
Length of Visible Light 14h 22m
Length of Day
13h 23m
Waning Crescent, 11% of the Moon is Illuminated
Aug 27
Waning Crescent
Aug 30
New
Sep 5
First Quarter
Sep 13
Full
Sep 21
Last Quarter

Hourly Weather History & Observations

Time (CDT) Temp. Dew Point Humidity Pressure Visibility Wind Dir Wind Speed Gust Speed Precip Events Conditions
12:15 AM 54.9 °F 52.5 °F 92% 30.04 in 10.0 mi West 5.8 mph - N/A   Clear
12:35 AM 55.0 °F 51.8 °F 89% 30.04 in 10.0 mi WNW 5.8 mph - N/A   Clear
12:55 AM 54.7 °F 51.8 °F 90% 30.05 in 10.0 mi WNW 4.6 mph - N/A   Clear
1:15 AM 53.2 °F 52.5 °F 97% 30.05 in 10.0 mi West 3.5 mph - N/A   Clear
1:35 AM 53.6 °F 52.7 °F 97% 30.06 in 10.0 mi West 4.6 mph - N/A   Clear
1:55 AM 53.2 °F 52.3 °F 97% 30.06 in 10.0 mi WNW 4.6 mph - N/A   Clear
2:15 AM 54.5 °F 50.9 °F 88% 30.05 in 10.0 mi WNW 8.1 mph - N/A   Clear
2:35 AM 54.5 °F 50.5 °F 86% 30.05 in 10.0 mi NW 5.8 mph - N/A   Clear
2:55 AM 53.6 °F 50.5 °F 89% 30.05 in 10.0 mi WNW 5.8 mph - N/A   Clear
3:15 AM 53.1 °F 50.2 °F 90% 30.06 in 10.0 mi NW 4.6 mph - N/A   Clear
3:35 AM 52.3 °F 50.4 °F 93% 30.07 in 10.0 mi WNW 6.9 mph - N/A   Clear
3:55 AM 52.2 °F 50.5 °F 94% 30.06 in 10.0 mi WNW 5.8 mph - N/A   Clear
4:15 AM 52.5 °F 50.2 °F 92% 30.07 in 10.0 mi WNW 6.9 mph - N/A   Clear
4:35 AM 53.6 °F 49.8 °F 87% 30.08 in 10.0 mi WNW 10.4 mph - N/A   Clear
4:55 AM 53.6 °F 49.6 °F 86% 30.07 in 10.0 mi WNW 6.9 mph - N/A   Clear
5:15 AM 54.0 °F 49.5 °F 85% 30.08 in 10.0 mi WNW 10.4 mph - N/A   Clear
5:35 AM 53.8 °F 49.3 °F 85% 30.08 in 10.0 mi NW 9.2 mph - N/A   Clear
5:55 AM 54.5 °F 49.1 °F 82% 30.07 in 10.0 mi NW 9.2 mph - N/A   Clear
6:15 AM 54.1 °F 49.1 °F 83% 30.08 in 10.0 mi NW 9.2 mph - N/A   Clear
6:35 AM 54.5 °F 49.1 °F 82% 30.08 in 10.0 mi WNW 9.2 mph - N/A   Clear
6:55 AM 52.7 °F 49.5 °F 89% 30.08 in 10.0 mi West 6.9 mph - N/A   Clear
7:15 AM 52.2 °F 50.2 °F 93% 30.08 in 10.0 mi West 4.6 mph - N/A   Clear
7:35 AM 52.5 °F 50.2 °F 92% 30.09 in 10.0 mi WNW 5.8 mph - N/A   Clear
8:15 AM 57.0 °F 48.7 °F 74% 30.10 in 10.0 mi NW 12.7 mph - N/A   Clear
8:35 AM 58.6 °F 48.9 °F 70% 30.10 in 10.0 mi NW 15.0 mph 19.6 mph N/A   Scattered Clouds
8:55 AM 58.8 °F 47.8 °F 67% 30.10 in 10.0 mi NW 12.7 mph - N/A   Overcast
9:15 AM 59.0 °F 47.8 °F 66% 30.12 in 10.0 mi NW 10.4 mph 16.1 mph N/A   Overcast
9:35 AM 59.0 °F 47.1 °F 65% 30.11 in 10.0 mi NW 10.4 mph - N/A   Overcast
9:55 AM 58.8 °F 47.5 °F 66% 30.12 in 10.0 mi NW 12.7 mph 18.4 mph N/A   Overcast
10:15 AM 59.2 °F 47.3 °F 65% 30.13 in 10.0 mi NW 10.4 mph 17.3 mph N/A   Overcast
10:35 AM 59.4 °F 47.5 °F 65% 30.13 in 10.0 mi NW 10.4 mph - N/A   Overcast
10:55 AM 59.2 °F 46.6 °F 63% 30.14 in 10.0 mi NW 9.2 mph - N/A   Overcast
11:15 AM 59.0 °F 46.6 °F 63% 30.14 in 10.0 mi WNW 9.2 mph - N/A   Overcast
11:35 AM 59.2 °F 46.6 °F 63% 30.14 in 10.0 mi WNW 8.1 mph - N/A   Mostly Cloudy
11:55 AM 61.2 °F 46.4 °F 58% 30.14 in 10.0 mi WNW 12.7 mph 19.6 mph N/A   Scattered Clouds
12:15 PM 62.8 °F 45.7 °F 54% 30.13 in 10.0 mi WNW 16.1 mph 20.7 mph N/A   Scattered Clouds
12:35 PM 64.2 °F 45.5 °F 51% 30.13 in 10.0 mi WNW 11.5 mph 18.4 mph N/A   Scattered Clouds
12:55 PM 66.4 °F 44.8 °F 46% 30.12 in 10.0 mi WNW 16.1 mph 24.2 mph N/A   Scattered Clouds
1:15 PM 67.3 °F 44.6 °F 44% 30.12 in 10.0 mi NW 16.1 mph 23.0 mph N/A   Scattered Clouds
1:35 PM 68.0 °F 41.0 °F 37% 30.12 in 10.0 mi NW 19.6 mph 27.6 mph N/A   Clear
1:55 PM 68.2 °F 43.0 °F 40% 30.11 in 10.0 mi WNW 16.1 mph 21.9 mph N/A   Clear
2:15 PM 69.1 °F 38.1 °F 32% 30.12 in 10.0 mi NW 18.4 mph 27.6 mph N/A   Clear
2:35 PM 69.4 °F 39.7 °F 34% 30.11 in 10.0 mi NW 15.0 mph 26.5 mph N/A   Clear
2:55 PM 69.8 °F 39.0 °F 33% 30.11 in 10.0 mi WNW 18.4 mph 27.6 mph N/A   Clear
3:15 PM 70.0 °F 41.2 °F 35% 30.10 in 10.0 mi NW 17.3 mph 27.6 mph N/A   Clear
3:35 PM 70.7 °F 39.2 °F 32% 30.10 in 10.0 mi NW 17.3 mph 26.5 mph N/A   Clear
3:55 PM 70.7 °F 38.8 °F 31% 30.09 in 10.0 mi WNW 18.4 mph 27.6 mph N/A   Clear
4:15 PM 70.9 °F 38.5 °F 31% 30.09 in 10.0 mi NW 13.8 mph 26.5 mph N/A   Clear
4:35 PM 71.2 °F 35.2 °F 27% 30.09 in 10.0 mi WNW 24.2 mph 29.9 mph N/A   Clear
4:55 PM 71.1 °F 35.6 °F 27% 30.08 in 10.0 mi NW 19.6 mph 28.8 mph N/A   Clear
5:15 PM 70.9 °F 35.8 °F 28% 30.08 in 10.0 mi NW 18.4 mph 28.8 mph N/A   Clear
5:35 PM 71.1 °F 37.6 °F 29% 30.08 in 10.0 mi NW 18.4 mph 24.2 mph N/A   Clear
5:55 PM 70.9 °F 37.8 °F 30% 30.08 in 10.0 mi NW 15.0 mph 23.0 mph N/A   Clear
6:15 PM 70.7 °F 37.8 °F 30% 30.08 in 10.0 mi NW 16.1 mph 21.9 mph N/A   Clear
6:35 PM 70.2 °F 36.9 °F 30% 30.08 in 10.0 mi NW 16.1 mph 20.7 mph N/A   Clear
6:55 PM 69.4 °F 37.8 °F 31% 30.08 in 10.0 mi NW 11.5 mph 19.6 mph N/A   Clear
7:15 PM 68.4 °F 38.3 °F 33% 30.08 in 10.0 mi NNW 11.5 mph - N/A   Clear
7:35 PM 67.1 °F 39.6 °F 36% 30.08 in 10.0 mi NNW 8.1 mph - N/A   Clear
7:55 PM 63.9 °F 41.9 °F 45% 30.08 in 10.0 mi NNW 8.1 mph - N/A   Clear
8:15 PM 61.9 °F 42.3 °F 49% 30.08 in 10.0 mi NNW 6.9 mph - N/A   Clear
8:35 PM 63.5 °F 40.3 °F 43% 30.09 in 10.0 mi NNW 4.6 mph - N/A   Clear
8:55 PM 62.6 °F 40.1 °F 44% 30.10 in 10.0 mi NNW 5.8 mph - N/A   Clear
9:15 PM 61.0 °F 40.6 °F 47% 30.10 in 10.0 mi NW 4.6 mph - N/A   Clear
9:35 PM 59.2 °F 43.0 °F 55% 30.10 in 10.0 mi WNW 5.8 mph - N/A   Clear
9:55 PM 56.7 °F 43.9 °F 62% 30.11 in 10.0 mi West 5.8 mph - N/A   Clear
10:15 PM 56.7 °F 43.2 °F 61% 30.11 in 10.0 mi West 5.8 mph - N/A   Clear
10:35 PM 52.2 °F 45.1 °F 77% 30.11 in 10.0 mi SW 4.6 mph - N/A   Clear
10:55 PM 54.3 °F 43.7 °F 67% 30.11 in 10.0 mi West 4.6 mph - N/A   Clear
11:15 PM 52.7 °F 45.0 °F 75% 30.12 in 10.0 mi West 3.5 mph - N/A   Clear
11:35 PM 52.2 °F 45.1 °F 77% 30.12 in 10.0 mi West 5.8 mph - N/A   Clear
11:55 PM 52.3 °F 43.9 °F 73% 30.11 in 10.0 mi West 5.8 mph - N/A   Clear